DW9346 Weather Reports


time (UTC)temp
F
wind
direction
speed
knots
gust
knots
rain 1hr
in
rain 24hr
in
rain mn
in
humidity
%
barometer
mb
20200221010704 48 244 0.0 0.0 0.00 0.00 0.00 54 1021.9
20200221010204 48 243 0.0 0.0 0.00 0.00 0.00 54 1021.9
20200221005704 48 243 0.0 0.0 0.00 0.00 0.00 58 1021.9
20200221005204 48 163 0.0 0.0 0.00 0.00 0.00 56 1021.9
20200221004704 49 163 0.0 0.0 0.00 0.00 0.00 54 1021.9
20200221004204 49 163 0.0 0.0 0.00 0.00 0.00 54 1022.0
20200221003704 49 163 0.0 0.0 0.00 0.00 0.00 54 1022.0
20200221003205 49 163 0.0 0.0 0.00 0.00 0.00 54 1022.0
20200221002704 49 163 0.0 0.0 0.00 0.00 0.00 53 1022.0
20200221002204 49 163 0.0 0.0 0.00 0.00 0.00 52 1022.1
20200221001704 50 163 0.0 0.0 0.00 0.00 0.00 53 1022.1
20200221001204 50 163 0.0 0.0 0.00 0.00 0.00 54 1022.1
20200221000704 50 163 0.0 0.0 0.00 0.00 0.00 52 1022.2
20200221000204 49 163 0.0 0.9 0.00 0.00 0.00 54 1022.3
20200220235704 49 163 0.0 2.6 0.00 0.00 0.00 56 1022.3
20200220235203 49 163 0.0 2.6 0.00 0.00 0.00 55 1022.3
20200220234704 49 163 0.9 2.6 0.00 0.00 0.00 54 1022.3
20200220234204 49 163 0.0 1.7 0.00 0.00 0.00 59 1022.3
20200220233704 49 163 0.0 0.9 0.00 0.00 0.00 60 1022.3
20200220233204 49 163 0.0 2.6 0.00 0.00 0.00 62 1022.4
20200220232703 50 163 0.9 2.6 0.00 0.00 0.00 63 1022.4
20200220232204 50 163 0.9 2.6 0.00 0.00 0.00 65 1022.4
20200220231704 50 163 0.0 1.7 0.00 0.00 0.00 70 1022.4
20200220231204 50 163 0.0 1.7 0.00 0.00 0.00 73 1022.3
20200220230703 50 163 0.0 1.7 0.00 0.00 0.00 75 1022.3
20200220230204 50 163 0.0 1.7 0.00 0.00 0.00 72 1022.2
20200220225732 50 163 0.0 1.7 0.00 0.00 0.00 72 1022.3
20200220225205 50 163 0.0 2.6 0.00 0.00 0.00 72 1022.2
20200220224704 50 163 0.9 2.6 0.00 0.00 0.00 71 1022.2
20200220224204 50 163 0.9 1.7 0.00 0.00 0.00 75 1022.3
20200220223704 50 163 0.0 1.7 0.00 0.00 0.00 70 1022.4
20200220223204 50 163 0.0 1.7 0.00 0.00 0.00 71 1022.3
20200220222704 49 163 0.0 2.6 0.00 0.00 0.00 75 1022.2
20200220222204 49 163 0.9 2.6 0.00 0.00 0.00 75 1022.3
20200220221704 49 163 0.9 2.6 0.00 0.00 0.00 75 1022.4
20200220221204 49 163 0.9 1.7 0.00 0.00 0.00 75 1022.4
20200220220703 49 163 0.9 2.6 0.00 0.00 0.00 76 1022.5
20200220220204 49 163 0.9 2.6 0.00 0.00 0.00 75 1022.5
20200220215704 49 163 0.0 1.7 0.00 0.00 0.00 74 1022.6
20200220215205 49 163 0.0 1.7 0.00 0.00 0.00 72 1022.6
20200220214704 49 163 0.0 1.7 0.00 0.00 0.00 73 1022.7
20200220214204 49 163 0.0 1.7 0.00 0.00 0.00 69 1022.6
20200220213704 49 163 0.0 2.6 0.00 0.00 0.00 71 1022.6
20200220213204 49 163 0.0 2.6 0.00 0.00 0.00 70 1022.7
20200220212704 49 163 0.9 2.6 0.00 0.00 0.00 68 1022.7
20200220212205 50 163 0.9 3.5 0.00 0.00 0.00 68 1022.8
20200220211705 51 163 0.9 3.5 0.00 0.00 0.00 65 1022.8
20200220211204 51 163 0.9 3.5 0.00 0.00 0.00 59 1022.8
20200220210704 51 153 0.0 0.0 0.00 0.00 0.00 51 1022.9
20200220210204 51 154 0.0 0.0 0.00 0.00 0.00 48 1022.8
20200220205703 51 154 0.0 0.0 0.00 0.00 0.00 48 1022.9
20200220205205 50 154 0.0 0.0 0.00 0.00 0.00 48 1022.9
20200220203204 49 154 0.0 0.0 0.00 0.00 0.00 52 1023.1
20200220202704 48 154 0.0 0.0 0.00 0.00 0.00 53 1023.2
20200220202204 48 154 0.0 0.0 0.00 0.00 0.00 63 1023.2
20200220201704 47 154 0.0 0.0 0.00 0.00 0.00 71 1023.3
20200220201204 47 154 0.0 0.0 0.00 0.00 0.00 71 1023.4
20200220200703 47 154 0.0 0.0 0.00 0.00 0.00 73 1023.5
20200220200204 46 154 0.0 0.0 0.00 0.00 0.00 71 1023.6
20200220195704 46 154 0.0 0.0 0.00 0.00 0.00 70 1023.6
20200220195204 46 154 0.0 0.0 0.00 0.00 0.00 74 1023.6
20200220194703 46 154 0.0 0.0 0.00 0.00 0.00 73 1023.6
20200220194204 46 154 0.0 0.0 0.00 0.00 0.00 77 1023.6
20200220193704 46 154 0.0 0.0 0.00 0.00 0.00 76 1023.6
20200220193204 46 154 0.0 0.0 0.00 0.00 0.00 77 1023.7
20200220192704 45 154 0.0 0.0 0.00 0.00 0.00 75 1023.6
20200220192204 45 154 0.0 0.0 0.00 0.00 0.00 78 1023.6
20200220191704 45 154 0.0 0.0 0.00 0.00 0.00 77 1023.6
20200220191204 44 154 0.0 0.0 0.00 0.00 0.00 79 1023.6
20200220190704 44 154 0.0 0.0 0.00 0.00 0.00 81 1023.5
20200220190204 44 154 0.0 0.0 0.00 0.00 0.00 80 1023.6
20200220185704 44 154 0.0 0.0 0.00 0.00 0.00 80 1023.6
20200220185205 43 154 0.0 0.0 0.00 0.00 0.00 80 1023.7
20200220184704 43 154 0.0 0.0 0.00 0.00 0.00 80 1023.7
20200220184204 43 154 0.0 0.0 0.00 0.00 0.00 79 1023.7
20200220183704 43 130 0.0 0.0 0.00 0.00 0.00 80 1023.7
20200220183204 43 130 0.0 0.0 0.00 0.00 0.00 80 1023.7
20200220182704 43 130 0.0 0.0 0.00 0.00 0.00 81 1023.7
20200220182204 42 131 0.0 0.0 0.00 0.00 0.00 80 1023.8
20200220181704 42 130 0.0 0.0 0.00 0.00 0.00 81 1023.8
20200220181204 42 131 0.0 0.0 0.00 0.00 0.00 81 1023.8
20200220180703 42 130 0.0 0.0 0.00 0.00 0.00 80 1023.8
20200220180204 42 130 0.0 0.0 0.00 0.00 0.00 81 1023.8
20200220175704 42 131 0.0 0.0 0.00 0.00 0.00 80 1023.8
20200220175204 41 131 0.0 0.0 0.00 0.00 0.00 79 1023.8
20200220174704 42 131 0.0 0.0 0.00 0.00 0.00 80 1023.8
20200220174205 41 131 0.0 0.0 0.00 0.00 0.00 79 1023.9
20200220173704 41 131 0.0 0.0 0.00 0.00 0.00 79 1023.9
20200220173204 41 131 0.0 0.0 0.00 0.00 0.00 79 1023.8
20200220172704 41 138 0.0 0.0 0.00 0.00 0.00 78 1023.9
20200220172204 41 139 0.0 0.0 0.00 0.00 0.00 81 1023.8
20200220171704 40 140 0.0 0.0 0.00 0.00 0.00 85 1023.9
20200220171205 38 125 0.0 0.0 0.00 0.00 0.00 88 1023.8
20200220170703 36 91 0.0 0.0 0.00 0.00 0.00 91 1023.8
20200220170204 35 302 0.0 0.0 0.00 0.00 0.00 90 1023.8
20200220165704 35 301 0.0 0.0 0.00 0.00 0.00 90 1023.8
20200220165205 34 301 0.0 0.0 0.00 0.00 0.00 90 1023.7
20200220164704 34 301 0.0 0.0 0.00 0.00 0.00 91 1023.7
20200220164206 34 301 0.0 0.0 0.00 0.00 0.00 90 1023.7
20200220163704 34 301 0.0 0.0 0.00 0.00 0.00 91 1023.6
20200220163204 34 301 0.0 0.0 0.00 0.00 0.00 91 1023.6
20200220162703 33 301 0.0 0.0 0.00 0.00 0.00 90 1023.5
20200220162204 33 301 0.0 0.0 0.00 0.00 0.00 91 1023.5
20200220161704 33 301 0.0 0.0 0.00 0.00 0.00 91 1023.5
20200220161204 33 301 0.0 0.0 0.00 0.00 0.00 92 1023.6
20200220160704 33 301 0.0 0.0 0.00 0.00 0.00 92 1023.6
20200220160204 33 301 0.0 0.0 0.00 0.00 0.00 91 1023.6
20200220155704 33 301 0.0 0.0 0.00 0.00 0.00 92 1023.5
20200220155205 33 301 0.0 0.0 0.00 0.00 0.00 92 1023.4
20200220154704 32 301 0.0 0.0 0.00 0.00 0.00 92 1023.5
20200220154204 32 301 0.0 0.0 0.00 0.00 0.00 92 1023.4
20200220153704 32 301 0.0 0.0 0.00 0.00 0.00 92 1023.3
20200220153204 31 301 0.0 0.0 0.00 0.00 0.00 92 1023.2
20200220152707 31 301 0.0 0.0 0.00 0.00 0.00 91 1023.1
20200220152204 31 301 0.0 0.0 0.00 0.00 0.00 90 1023.0
20200220151703 31 301 0.0 0.0 0.00 0.00 0.00 89 1022.9
20200220151205 31 301 0.0 0.0 0.00 0.00 0.00 90 1022.8
20200220150704 31 301 0.0 0.0 0.00 0.00 0.00 90 1022.8
20200220150205 31 301 0.0 0.0 0.00 0.00 0.00 91 1022.8
20200220145704 31 301 0.0 0.0 0.00 0.00 0.00 91 1022.8
20200220145204 31 301 0.0 0.0 0.00 0.00 0.00 91 1022.8
20200220144704 31 301 0.0 0.0 0.00 0.00 0.00 92 1022.9
20200220144205 31 301 0.0 0.0 0.00 0.00 0.00 92 1022.9
20200220143704 31 301 0.0 0.0 0.00 0.00 0.00 92 1023.1
20200220143204 31 301 0.0 0.0 0.00 0.00 0.00 92 1023.0
20200220142704 31 301 0.0 0.0 0.00 0.00 0.00 92 1023.1
20200220142205 31 301 0.0 0.0 0.00 0.00 0.00 92 1023.1
20200220141703 31 301 0.0 0.0 0.00 0.00 0.00 92 1023.0
20200220141204 31 301 0.0 0.0 0.00 0.00 0.00 92 1023.0
20200220140705 31 301 0.0 0.0 0.00 0.00 0.00 92 1023.1
20200220140204 31 301 0.0 0.0 0.00 0.00 0.00 92 1023.0
20200220135704 31 301 0.0 0.0 0.00 0.00 0.00 92 1023.0
20200220135204 31 301 0.0 0.0 0.00 0.00 0.00 92 1023.0
20200220134704 31 301 0.0 0.0 0.00 0.00 0.00 91 1023.0
20200220134205 31 301 0.0 0.0 0.00 0.00 0.00 91 1022.9
20200220133704 31 301 0.0 0.0 0.00 0.00 0.00 91 1022.9
20200220133205 31 301 0.0 0.0 0.00 0.00 0.00 90 1022.9
20200220132704 31 301 0.0 0.0 0.00 0.00 0.00 91 1023.0
20200220132204 31 301 0.0 0.0 0.00 0.00 0.00 90 1022.9
20200220131704 32 301 0.0 0.0 0.00 0.00 0.00 90 1023.0
20200220131204 32 301 0.0 0.0 0.00 0.00 0.00 89 1023.0
20200220130704 32 301 0.0 0.0 0.00 0.00 0.00 89 1023.0
20200220130204 32 301 0.0 0.0 0.00 0.00 0.00 90 1023.1
20200220125704 32 301 0.0 0.0 0.00 0.00 0.00 90 1023.1
20200220125204 32 301 0.0 0.0 0.00 0.00 0.00 89 1023.0
20200220124704 32 301 0.0 0.0 0.00 0.00 0.00 90 1023.0
20200220124204 32 301 0.0 0.0 0.00 0.00 0.00 90 1023.1
20200220123703 32 301 0.0 0.0 0.00 0.00 0.00 89 1023.0
20200220123204 32 301 0.0 0.0 0.00 0.00 0.00 89 1023.0
20200220122704 32 301 0.0 0.0 0.00 0.00 0.00 89 1023.0
20200220122204 32 301 0.0 0.0 0.00 0.00 0.00 88 1023.0
20200220121704 32 301 0.0 0.0 0.00 0.00 0.00 89 1023.0
20200220121204 32 301 0.0 0.0 0.00 0.00 0.00 88 1023.1
20200220120703 32 301 0.0 0.0 0.00 0.00 0.00 89 1023.1
20200220120203 32 301 0.0 0.0 0.00 0.00 0.00 89 1023.0
20200220115704 32 301 0.0 0.0 0.00 0.00 0.00 89 1023.0
20200220115204 32 301 0.0 0.0 0.00 0.00 0.00 90 1023.0
20200220114704 33 301 0.0 0.0 0.00 0.00 0.00 89 1023.0
20200220114204 33 301 0.0 0.0 0.00 0.00 0.00 89 1023.2
20200220113703 33 301 0.0 0.0 0.00 0.00 0.00 89 1023.2
20200220113204 33 301 0.0 0.0 0.00 0.00 0.00 88 1023.2
20200220112704 33 301 0.0 0.0 0.00 0.00 0.00 88 1023.2
20200220112204 33 301 0.0 0.0 0.00 0.00 0.00 89 1023.2
20200220111704 33 301 0.0 0.0 0.00 0.00 0.00 88 1023.2
20200220111204 33 301 0.0 0.0 0.00 0.00 0.00 88 1023.1
20200220110703 33 301 0.0 0.0 0.00 0.00 0.00 88 1023.1
20200220110204 33 301 0.0 0.0 0.00 0.00 0.00 88 1023.2
20200220105703 33 301 0.0 0.0 0.00 0.00 0.00 89 1023.3
20200220105204 33 301 0.0 0.0 0.00 0.00 0.00 89 1023.3
20200220104703 33 301 0.0 0.0 0.00 0.00 0.00 89 1023.3
20200220104204 33 301 0.0 0.0 0.00 0.00 0.00 89 1023.2
20200220103704 33 301 0.0 0.0 0.00 0.00 0.00 89 1023.3
20200220103204 33 301 0.0 0.0 0.00 0.00 0.00 88 1023.4
20200220102704 34 301 0.0 0.0 0.00 0.00 0.00 88 1023.4
20200220102204 34 301 0.0 2.6 0.00 0.00 0.00 88 1023.4
20200220101704 34 301 0.0 2.6 0.00 0.00 0.00 88 1023.4
20200220101204 34 301 0.0 2.6 0.00 0.00 0.00 87 1023.4
20200220100704 34 301 0.9 2.6 0.00 0.00 0.00 85 1023.4
20200220100204 34 301 1.7 2.6 0.00 0.00 0.00 87 1023.4
20200220095704 34 301 0.9 2.6 0.00 0.00 0.00 88 1023.4
20200220095204 34 301 0.9 2.6 0.00 0.00 0.00 88 1023.4
20200220094704 34 301 0.9 2.6 0.00 0.00 0.00 88 1023.3
20200220094204 34 301 1.7 2.6 0.00 0.00 0.00 87 1023.3
20200220093703 34 301 0.9 2.6 0.00 0.00 0.00 86 1023.3
20200220093204 34 301 1.7 2.6 0.00 0.00 0.00 85 1023.3
20200220092703 34 301 1.7 2.6 0.00 0.00 0.00 85 1023.3
20200220092204 35 301 1.7 2.6 0.00 0.00 0.00 85 1023.3
20200220091703 35 301 1.7 2.6 0.00 0.00 0.00 84 1023.3
20200220091203 35 301 1.7 2.6 0.00 0.00 0.00 85 1023.4
20200220090704 35 301 1.7 2.6 0.00 0.00 0.00 84 1023.4
20200220090204 35 301 0.9 2.6 0.00 0.00 0.00 83 1023.4
20200220085704 35 301 0.0 0.0 0.00 0.00 0.00 84 1023.4
20200220085203 35 301 0.0 0.0 0.00 0.00 0.00 83 1023.4
20200220084704 35 301 0.0 0.0 0.00 0.00 0.00 84 1023.3
20200220084205 35 301 0.0 1.7 0.00 0.00 0.00 83 1023.4
20200220083704 35 301 0.9 1.7 0.00 0.00 0.00 82 1023.4
20200220083204 35 301 0.9 2.6 0.00 0.00 0.00 80 1023.4
20200220082704 35 301 0.9 2.6 0.00 0.00 0.00 78 1023.4
20200220082204 35 301 0.0 1.7 0.00 0.00 0.00 81 1023.3
20200220081704 36 301 0.0 1.7 0.00 0.00 0.00 82 1023.3
20200220081204 36 301 0.0 1.7 0.00 0.00 0.00 80 1023.2
20200220080704 36 301 0.9 1.7 0.00 0.00 0.00 82 1023.2
20200220080204 36 301 0.9 2.6 0.00 0.00 0.00 82 1023.3
20200220075704 36 301 0.9 2.6 0.00 0.00 0.00 82 1023.3
20200220075204 36 301 0.9 2.6 0.00 0.00 0.00 82 1023.3
20200220074704 36 301 0.9 2.6 0.00 0.00 0.00 80 1023.3
20200220074204 36 301 0.9 2.6 0.00 0.00 0.00 83 1023.3
20200220073703 37 301 0.9 2.6 0.00 0.00 0.00 81 1023.3
20200220072204 37 301 0.0 2.6 0.00 0.00 0.00 81 1023.2
20200220071704 37 301 0.9 2.6 0.00 0.00 0.00 82 1023.2
20200220071203 37 301 0.9 2.6 0.00 0.00 0.00 83 1023.1
20200220070704 37 301 0.9 2.6 0.00 0.00 0.00 82 1023.1
20200220070204 37 308 1.7 2.6 0.00 0.00 0.00 83 1023.1
20200220065704 37 295 0.9 2.6 0.00 0.00 0.00 81 1023.2
20200220065204 37 295 1.7 2.6 0.00 0.00 0.00 80 1023.2
20200220064703 37 295 1.7 2.6 0.00 0.00 0.00 82 1023.2
20200220064204 37 295 1.7 3.5 0.00 0.00 0.00 81 1023.2
20200220063703 38 295 1.7 3.5 0.00 0.00 0.00 82 1023.0
20200220063204 38 295 1.7 3.5 0.00 0.00 0.00 80 1023.0
20200220062704 38 295 0.9 3.5 0.00 0.00 0.00 77 1023.0
20200220062205 38 295 1.7 3.5 0.00 0.00 0.00 78 1022.9
20200220061704 38 294 1.7 3.5 0.00 0.00 0.00 77 1022.9
20200220061204 38 294 1.7 3.5 0.00 0.00 0.00 77 1022.8
20200220060704 38 293 1.7 3.5 0.00 0.00 0.00 75 1022.8
20200220060204 39 292 1.7 3.5 0.00 0.00 0.00 78 1022.8
20200220055704 39 290 2.6 3.5 0.00 0.00 0.00 76 1022.9
20200220055204 39 290 2.6 3.5 0.00 0.00 0.00 76 1022.8
20200220054704 39 290 2.6 3.5 0.00 0.00 0.00 74 1022.8
20200220054204 39 281 2.6 3.5 0.00 0.00 0.00 75 1022.7
20200220053704 39 296 2.6 3.5 0.00 0.00 0.00 74 1022.7
20200220053205 40 298 1.7 3.5 0.00 0.00 0.00 74 1022.6
20200220052704 40 291 1.7 3.5 0.00 0.00 0.00 75 1022.5
20200220052205 40 297 1.7 3.5 0.00 0.00 0.00 74 1022.5
20200220051703 40 288 1.7 3.5 0.00 0.00 0.00 76 1022.5
20200220051204 40 297 1.7 3.5 0.00 0.00 0.00 75 1022.5
20200220050704 40 288 1.7 3.5 0.00 0.00 0.00 75 1022.5
20200220050204 40 286 1.7 4.3 0.00 0.00 0.00 75 1022.5
20200220045704 40 285 2.6 4.3 0.00 0.00 0.00 74 1022.5
20200220045204 40 295 2.6 4.3 0.00 0.00 0.00 74 1022.4
20200220044703 40 297 2.6 3.5 0.00 0.00 0.00 73 1022.5
20200220044204 40 296 2.6 4.3 0.00 0.00 0.00 72 1022.6
20200220043704 41 294 2.6 4.3 0.00 0.00 0.00 71 1022.5
20200220043204 41 294 1.7 4.3 0.00 0.00 0.00 73 1022.5
20200220042704 41 288 2.6 4.3 0.00 0.00 0.00 71 1022.5
20200220042204 41 284 2.6 4.3 0.00 0.00 0.00 73 1022.4
20200220041703 41 289 1.7 4.3 0.00 0.00 0.00 73 1022.4
20200220041204 41 288 1.7 4.3 0.00 0.00 0.00 73 1022.3
20200220040704 41 287 2.6 3.5 0.00 0.00 0.00 72 1022.3
20200220040204 41 286 2.6 3.5 0.00 0.00 0.00 73 1022.3
20200220035704 41 284 2.6 3.5 0.00 0.00 0.00 73 1022.3
20200220035203 42 294 2.6 3.5 0.00 0.00 0.00 72 1022.3
20200220034704 42 299 2.6 3.5 0.00 0.00 0.00 70 1022.4
20200220034204 41 294 2.6 3.5 0.00 0.00 0.00 73 1022.4
20200220033704 41 298 1.7 3.5 0.00 0.00 0.00 73 1022.4
20200220033204 42 287 0.9 2.6 0.00 0.00 0.00 71 1022.4
20200220032704 42 292 0.9 1.7 0.00 0.00 0.00 69 1022.4
20200220032204 42 292 0.0 0.0 0.00 0.00 0.00 71 1022.4
20200220031704 42 292 0.0 0.0 0.00 0.00 0.00 72 1022.3
20200220031204 42 292 0.0 0.0 0.00 0.00 0.00 70 1022.3
20200220030704 42 292 0.0 0.0 0.00 0.00 0.00 67 1022.2
20200220030204 42 292 0.0 0.0 0.00 0.00 0.00 71 1022.2
20200220025704 42 292 0.0 0.0 0.00 0.00 0.00 70 1022.2
20200220025204 43 292 0.0 1.7 0.00 0.00 0.00 67 1022.2
20200220024704 43 292 0.0 2.6 0.00 0.00 0.00 67 1022.2
20200220024204 43 292 0.9 2.6 0.00 0.00 0.00 64 1022.2
20200220023704 43 292 1.7 2.6 0.00 0.00 0.00 67 1022.3
20200220023204 44 292 1.7 3.5 0.00 0.00 0.00 67 1022.2
20200220022704 44 292 1.7 3.5 0.00 0.00 0.00 67 1022.2
20200220022204 44 289 1.7 4.3 0.00 0.00 0.00 66 1022.1
20200220021704 44 268 1.7 4.3 0.00 0.00 0.00 64 1022.2
20200220021204 45 294 2.6 4.3 0.00 0.00 0.00 64 1022.1
20200220020704 45 278 2.6 4.3 0.00 0.00 0.00 61 1022.2
20200220020204 45 287 2.6 4.3 0.00 0.00 0.00 61 1022.1
20200220015704 46 300 2.6 4.3 0.00 0.00 0.00 63 1022.1
20200220015203 46 294 2.6 3.5 0.00 0.00 0.00 59 1022.1
20200220014704 46 292 2.6 3.5 0.00 0.00 0.00 62 1022.0
20200220014204 46 279 2.6 3.5 0.00 0.00 0.00 58 1022.0
20200220013704 46 302 1.7 3.5 0.00 0.00 0.00 56 1022.0
20200220013204 46 293 0.9 2.6 0.00 0.00 0.00 63 1022.0
20200220012704 47 293 0.0 0.0 0.00 0.00 0.00 61 1022.0
20200220012204 47 293 0.0 0.0 0.00 0.00 0.00 58 1022.0
20200220011703 47 293 0.0 0.0 0.00 0.00 0.00 58 1022.1
20200220011204 47 293 0.0 0.0 0.00 0.00 0.00 55 1022.1